Time,TemperatureF,DewpointF,PressureIn,WindDirection,WindDirectionDegrees,WindSpeedMPH,WindSpeedGustMPH,Humidity,HourlyPrecipIn,Conditions,Clouds,dailyrainin,SoftwareType,DateUTC
2013-02-03 00:02:00,43.0,38.0,30.22,North,3,0.0,16.0,82,0.00,,,0.00,,2013-02-03 06:02:00,
2013-02-03 00:11:00,43.0,38.0,30.22,North,3,0.0,16.0,82,0.00,,,0.00,,2013-02-03 06:11:00,
2013-02-03 00:21:00,42.0,37.0,30.22,North,3,0.0,0.0,83,0.00,,,0.00,,2013-02-03 06:21:00,
2013-02-03 00:32:00,42.0,38.0,30.22,North,3,0.0,0.0,84,0.00,,,0.00,,2013-02-03 06:32:00,
2013-02-03 00:41:00,42.0,38.0,30.22,North,3,0.0,0.0,84,0.00,,,0.00,,2013-02-03 06:41:00,
2013-02-03 00:52:00,41.0,37.0,30.22,North,3,0.0,0.0,85,0.00,,,0.00,,2013-02-03 06:52:00,
2013-02-03 01:01:00,40.0,36.0,30.22,North,3,0.0,0.0,84,0.00,,,0.00,,2013-02-03 07:01:00,
2013-02-03 01:11:00,40.0,36.0,30.22,North,3,0.0,0.0,84,0.00,,,0.00,,2013-02-03 07:11:00,
2013-02-03 01:21:00,40.0,36.0,30.22,North,3,0.0,0.0,86,0.00,,,0.00,,2013-02-03 07:21:00,
2013-02-03 01:31:00,39.0,35.0,30.22,North,3,0.0,0.0,86,0.00,,,0.00,,2013-02-03 07:31:00,
2013-02-03 01:41:00,39.0,35.0,30.22,North,3,0.0,0.0,86,0.00,,,0.00,,2013-02-03 07:41:00,
2013-02-03 01:52:00,39.0,35.0,30.21,North,3,0.0,0.0,87,0.00,,,0.00,,2013-02-03 07:52:00,
2013-02-03 02:01:00,39.0,36.0,30.21,North,3,0.0,0.0,88,0.00,,,0.00,,2013-02-03 08:01:00,
2013-02-03 02:11:00,39.0,36.0,30.21,North,3,0.0,0.0,88,0.00,,,0.00,,2013-02-03 08:11:00,
2013-02-03 02:22:00,38.0,35.0,30.21,North,3,0.0,0.0,88,0.00,,,0.00,,2013-02-03 08:22:00,
2013-02-03 02:32:00,38.0,35.0,30.21,North,3,0.0,0.0,88,0.00,,,0.00,,2013-02-03 08:32:00,
2013-02-03 02:41:00,38.0,35.0,30.21,North,3,0.0,0.0,88,0.00,,,0.00,,2013-02-03 08:41:00,
2013-02-03 02:52:00,38.0,35.0,30.21,North,3,0.0,0.0,89,0.00,,,0.00,,2013-02-03 08:52:00,
2013-02-03 03:02:00,38.0,35.0,30.20,North,3,0.0,0.0,89,0.00,,,0.00,,2013-02-03 09:02:00,
2013-02-03 03:11:00,38.0,35.0,30.20,North,3,0.0,0.0,89,0.00,,,0.00,,2013-02-03 09:11:00,
2013-02-03 03:21:00,38.0,36.0,30.20,North,3,0.0,0.0,91,0.00,,,0.00,,2013-02-03 09:21:00,
2013-02-03 03:31:00,37.0,35.0,30.20,North,3,0.0,0.0,91,0.00,,,0.00,,2013-02-03 09:31:00,
2013-02-03 03:41:00,37.0,35.0,30.20,North,3,0.0,0.0,91,0.00,,,0.00,,2013-02-03 09:41:00,
2013-02-03 03:52:00,37.0,34.0,30.20,North,3,0.0,0.0,90,0.00,,,0.00,,2013-02-03 09:52:00,
2013-02-03 04:01:00,37.0,35.0,30.20,North,3,0.0,0.0,91,0.00,,,0.00,,2013-02-03 10:01:00,
2013-02-03 04:11:00,37.0,35.0,30.20,North,3,0.0,0.0,91,0.00,,,0.00,,2013-02-03 10:11:00,
2013-02-03 04:21:00,37.0,35.0,30.20,North,3,0.0,0.0,91,0.00,,,0.00,,2013-02-03 10:21:00,
2013-02-03 04:31:00,36.0,34.0,30.20,North,3,0.0,0.0,91,0.00,,,0.00,,2013-02-03 10:31:00,
2013-02-03 04:42:00,36.0,34.0,30.20,North,3,0.0,0.0,91,0.00,,,0.00,,2013-02-03 10:42:00,
2013-02-03 04:52:00,36.0,34.0,30.21,North,3,0.0,0.0,91,0.00,,,0.00,,2013-02-03 10:52:00,
2013-02-03 05:02:00,36.0,34.0,30.21,North,3,0.0,0.0,91,0.00,,,0.00,,2013-02-03 11:02:00,
2013-02-03 05:11:00,36.0,34.0,30.21,North,3,0.0,0.0,91,0.00,,,0.00,,2013-02-03 11:11:00,
2013-02-03 05:22:00,35.0,33.0,30.22,North,3,0.0,0.0,91,0.00,,,0.00,,2013-02-03 11:22:00,
2013-02-03 05:32:00,35.0,33.0,30.22,North,3,0.0,0.0,91,0.00,,,0.00,,2013-02-03 11:32:00,
2013-02-03 05:41:00,35.0,33.0,30.22,North,3,0.0,0.0,91,0.00,,,0.00,,2013-02-03 11:41:00,
2013-02-03 05:52:00,35.0,33.0,30.23,North,3,0.0,0.0,91,0.00,,,0.00,,2013-02-03 11:52:00,
2013-02-03 06:02:00,35.0,33.0,30.23,North,3,0.0,0.0,91,0.00,,,0.00,,2013-02-03 12:02:00,
2013-02-03 06:11:00,35.0,33.0,30.23,North,3,0.0,0.0,91,0.00,,,0.00,,2013-02-03 12:11:00,
2013-02-03 06:22:00,35.0,33.0,30.23,North,3,0.0,0.0,92,0.00,,,0.00,,2013-02-03 12:22:00,
2013-02-03 06:32:00,35.0,33.0,30.23,North,3,0.0,0.0,92,0.00,,,0.00,,2013-02-03 12:32:00,
2013-02-03 06:42:00,35.0,33.0,30.23,North,3,0.0,0.0,92,0.00,,,0.00,,2013-02-03 12:42:00,
2013-02-03 06:53:00,35.0,33.0,30.24,North,3,0.0,0.0,92,0.00,,,0.00,,2013-02-03 12:53:00,
2013-02-03 07:03:00,35.0,33.0,30.24,North,3,0.0,0.0,92,0.00,,,0.00,,2013-02-03 13:03:00,
2013-02-03 07:11:00,35.0,33.0,30.24,North,3,0.0,0.0,93,0.00,,,0.00,,2013-02-03 13:11:00,
2013-02-03 07:21:00,35.0,33.0,30.24,North,3,0.0,0.0,93,0.00,,,0.00,,2013-02-03 13:21:00,
2013-02-03 07:32:00,35.0,33.0,30.24,North,3,0.0,0.0,93,0.00,,,0.00,,2013-02-03 13:32:00,
2013-02-03 07:42:00,35.0,33.0,30.24,North,3,0.0,0.0,93,0.00,,,0.00,,2013-02-03 13:42:00,
2013-02-03 07:52:00,35.0,33.0,30.24,North,3,0.0,0.0,93,0.00,,,0.00,,2013-02-03 13:52:00,
2013-02-03 08:02:00,35.0,33.0,30.24,North,3,0.0,0.0,93,0.00,,,0.00,,2013-02-03 14:02:00,
2013-02-03 08:11:00,35.0,33.0,30.24,North,3,0.0,0.0,93,0.00,,,0.00,,2013-02-03 14:11:00,
2013-02-03 08:21:00,37.0,36.0,30.25,North,3,0.0,0.0,95,0.00,,,0.00,,2013-02-03 14:21:00,
2013-02-03 08:32:00,39.0,38.0,30.25,North,3,0.0,0.0,96,0.00,,,0.00,,2013-02-03 14:32:00,
2013-02-03 08:42:00,39.0,38.0,30.25,North,3,0.0,0.0,96,0.00,,,0.00,,2013-02-03 14:42:00,
2013-02-03 08:52:00,43.0,42.0,30.24,North,3,0.0,0.0,98,0.00,,,0.00,,2013-02-03 14:52:00,
2013-02-03 09:03:00,45.0,44.0,30.24,WSW,252,0.0,1.0,97,0.00,,,0.00,,2013-02-03 15:03:00,
2013-02-03 09:11:00,46.0,44.0,30.24,WSW,252,0.0,1.0,92,0.00,,,0.00,,2013-02-03 15:11:00,
2013-02-03 09:22:00,46.0,44.0,30.24,WSW,252,0.0,1.0,92,0.00,,,0.00,,2013-02-03 15:22:00,
2013-02-03 09:32:00,49.0,45.0,30.24,West,276,0.0,1.0,86,0.00,,,0.00,,2013-02-03 15:32:00,
2013-02-03 09:41:00,49.0,45.0,30.24,West,276,0.0,1.0,86,0.00,,,0.00,,2013-02-03 15:41:00,
2013-02-03 09:52:00,52.0,45.0,30.24,WSW,240,0.0,4.0,76,0.00,,,0.00,,2013-02-03 15:52:00,
2013-02-03 10:02:00,53.0,45.0,30.24,WSW,254,1.0,4.0,73,0.00,,,0.00,,2013-02-03 16:02:00,
2013-02-03 10:11:00,53.0,45.0,30.24,WSW,254,1.0,4.0,73,0.00,,,0.00,,2013-02-03 16:11:00,
2013-02-03 10:22:00,56.0,44.0,30.24,SW,226,0.0,7.0,65,0.00,,,0.00,,2013-02-03 16:22:00,
2013-02-03 10:32:00,58.0,45.0,30.23,WNW,283,0.0,7.0,63,0.00,,,0.00,,2013-02-03 16:32:00,
2013-02-03 10:41:00,58.0,45.0,30.23,WNW,283,0.0,7.0,63,0.00,,,0.00,,2013-02-03 16:41:00,
2013-02-03 10:52:00,60.0,43.0,30.24,West,261,1.0,9.0,54,0.00,,,0.00,,2013-02-03 16:52:00,
2013-02-03 11:02:00,61.0,43.0,30.23,WSW,255,0.0,10.0,52,0.00,,,0.00,,2013-02-03 17:02:00,
2013-02-03 11:11:00,61.0,43.0,30.23,WSW,255,0.0,10.0,52,0.00,,,0.00,,2013-02-03 17:11:00,
2013-02-03 11:21:00,62.0,43.0,30.22,NW,307,0.0,11.0,49,0.00,,,0.00,,2013-02-03 17:21:00,
2013-02-03 11:32:00,63.0,39.0,30.22,WNW,301,3.0,12.0,41,0.00,,,0.00,,2013-02-03 17:32:00,
2013-02-03 11:42:00,63.0,39.0,30.22,WNW,301,3.0,12.0,41,0.00,,,0.00,,2013-02-03 17:42:00,
2013-02-03 11:52:00,64.0,39.0,30.22,NNW,331,5.0,12.0,40,0.00,,,0.00,,2013-02-03 17:52:00,
2013-02-03 12:02:00,64.0,37.0,30.22,NW,304,7.0,15.0,37,0.00,,,0.00,,2013-02-03 18:02:00,
2013-02-03 12:12:00,64.0,37.0,30.22,NW,304,7.0,15.0,37,0.00,,,0.00,,2013-02-03 18:12:00,
2013-02-03 12:23:00,65.0,37.0,30.20,NNW,347,5.0,15.0,36,0.00,,,0.00,,2013-02-03 18:23:00,
2013-02-03 12:32:00,64.0,36.0,30.19,WSW,247,3.0,15.0,35,0.00,,,0.00,,2013-02-03 18:32:00,
2013-02-03 12:42:00,64.0,36.0,30.19,WSW,247,3.0,15.0,35,0.00,,,0.00,,2013-02-03 18:42:00,
2013-02-03 12:52:00,65.0,34.0,30.18,North,359,7.0,15.0,32,0.00,,,0.00,,2013-02-03 18:52:00,
2013-02-03 13:02:00,65.0,36.0,30.17,North,351,3.0,15.0,34,0.00,,,0.00,,2013-02-03 19:02:00,
2013-02-03 13:11:00,65.0,36.0,30.17,North,351,3.0,15.0,34,0.00,,,0.00,,2013-02-03 19:11:00,
2013-02-03 13:22:00,66.0,34.0,30.17,North,353,5.0,15.0,31,0.00,,,0.00,,2013-02-03 19:22:00,
2013-02-03 13:32:00,66.0,34.0,30.17,NE,43,2.0,15.0,30,0.00,,,0.00,,2013-02-03 19:32:00,
2013-02-03 13:41:00,66.0,34.0,30.17,NE,43,2.0,15.0,30,0.00,,,0.00,,2013-02-03 19:41:00,
2013-02-03 13:52:00,66.0,32.0,30.16,NNW,331,3.0,15.0,28,0.00,,,0.00,,2013-02-03 19:52:00,
2013-02-03 14:01:00,66.0,31.0,30.16,NNW,341,2.0,20.0,27,0.00,,,0.00,,2013-02-03 20:01:00,
2013-02-03 14:12:00,66.0,31.0,30.16,NNW,341,2.0,20.0,27,0.00,,,0.00,,2013-02-03 20:12:00,
2013-02-03 14:21:00,66.0,31.0,30.15,West,276,3.0,21.0,27,0.00,,,0.00,,2013-02-03 20:21:00,
2013-02-03 14:32:00,66.0,30.0,30.15,North,5,3.0,21.0,26,0.00,,,0.00,,2013-02-03 20:32:00,
2013-02-03 14:42:00,66.0,30.0,30.15,North,5,3.0,21.0,26,0.00,,,0.00,,2013-02-03 20:42:00,
2013-02-03 14:52:00,66.0,28.0,30.14,WNW,291,3.0,21.0,24,0.00,,,0.00,,2013-02-03 20:52:00,
2013-02-03 15:03:00,66.0,30.0,30.15,NW,310,2.0,21.0,26,0.00,,,0.00,,2013-02-03 21:03:00,
2013-02-03 15:11:00,66.0,30.0,30.15,NW,310,2.0,21.0,26,0.00,,,0.00,,2013-02-03 21:11:00,
2013-02-03 15:21:00,66.0,30.0,30.15,NNW,339,1.0,21.0,26,0.00,,,0.00,,2013-02-03 21:21:00,
2013-02-03 15:32:00,65.0,29.0,30.14,West,263,5.0,21.0,26,0.00,,,0.00,,2013-02-03 21:32:00,
2013-02-03 15:42:00,65.0,29.0,30.14,West,263,5.0,21.0,26,0.00,,,0.00,,2013-02-03 21:42:00,
2013-02-03 15:52:00,65.0,30.0,30.14,NNW,347,3.0,21.0,27,0.00,,,0.00,,2013-02-03 21:52:00,
2013-02-03 16:01:00,65.0,30.0,30.13,NNE,22,2.0,21.0,27,0.00,,,0.00,,2013-02-03 22:01:00,
2013-02-03 16:11:00,65.0,30.0,30.13,NNE,22,2.0,21.0,27,0.00,,,0.00,,2013-02-03 22:11:00,
2013-02-03 16:21:00,65.0,29.0,30.14,NE,38,6.0,21.0,26,0.00,,,0.00,,2013-02-03 22:21:00,
2013-02-03 16:32:00,64.0,30.0,30.14,NNW,332,2.0,21.0,28,0.00,,,0.00,,2013-02-03 22:32:00,
2013-02-03 16:41:00,64.0,30.0,30.14,NNW,332,2.0,21.0,28,0.00,,,0.00,,2013-02-03 22:41:00,
2013-02-03 16:52:00,63.0,29.0,30.14,NNW,341,2.0,21.0,28,0.00,,,0.00,,2013-02-03 22:52:00,
2013-02-03 17:01:00,63.0,32.0,30.14,NNE,17,2.0,21.0,31,0.00,,,0.00,,2013-02-03 23:01:00,
2013-02-03 17:12:00,63.0,32.0,30.14,NNE,17,2.0,21.0,31,0.00,,,0.00,,2013-02-03 23:12:00,
2013-02-03 17:22:00,61.0,32.0,30.14,NNW,344,2.0,21.0,33,0.00,,,0.00,,2013-02-03 23:22:00,
2013-02-03 17:32:00,60.0,32.0,30.14,North,9,0.0,21.0,34,0.00,,,0.00,,2013-02-03 23:32:00,
2013-02-03 17:41:00,60.0,32.0,30.14,North,9,0.0,21.0,34,0.00,,,0.00,,2013-02-03 23:41:00,
2013-02-03 17:52:00,59.0,31.0,30.14,NNW,329,0.0,21.0,35,0.00,,,0.00,,2013-02-03 23:52:00,
2013-02-03 18:01:00,58.0,31.0,30.15,NNW,329,0.0,21.0,36,0.00,,,0.00,,2013-02-04 00:01:00,
2013-02-03 18:11:00,58.0,31.0,30.15,NNW,329,0.0,21.0,36,0.00,,,0.00,,2013-02-04 00:11:00,
2013-02-03 18:22:00,56.0,32.0,30.15,NNW,329,0.0,21.0,40,0.00,,,0.00,,2013-02-04 00:22:00,
2013-02-03 18:31:00,55.0,33.0,30.15,NNW,329,0.0,21.0,43,0.00,,,0.00,,2013-02-04 00:31:00,
2013-02-03 18:41:00,55.0,33.0,30.15,NNW,329,0.0,21.0,43,0.00,,,0.00,,2013-02-04 00:41:00,
2013-02-03 18:52:00,53.0,33.0,30.15,NNW,329,1.0,21.0,46,0.00,,,0.00,,2013-02-04 00:52:00,
2013-02-03 19:01:00,53.0,33.0,30.15,NNW,329,0.0,21.0,47,0.00,,,0.00,,2013-02-04 01:01:00,
2013-02-03 19:11:00,52.0,33.0,30.15,NNW,329,0.0,21.0,49,0.00,,,0.00,,2013-02-04 01:11:00,
2013-02-03 19:21:00,52.0,33.0,30.15,NNW,329,0.0,21.0,49,0.00,,,0.00,,2013-02-04 01:21:00,
2013-02-03 19:31:00,50.0,33.0,30.15,NNW,329,0.0,21.0,51,0.00,,,0.00,,2013-02-04 01:31:00,
2013-02-03 19:41:00,50.0,33.0,30.15,NNW,329,0.0,21.0,51,0.00,,,0.00,,2013-02-04 01:41:00,
2013-02-03 19:52:00,49.0,33.0,30.16,NNW,329,0.0,21.0,53,0.00,,,0.00,,2013-02-04 01:52:00,
2013-02-03 20:02:00,48.0,32.0,30.16,NNW,329,0.0,21.0,54,0.00,,,0.00,,2013-02-04 02:02:00,
2013-02-03 20:11:00,48.0,32.0,30.16,NNW,329,0.0,21.0,54,0.00,,,0.00,,2013-02-04 02:11:00,
2013-02-03 20:21:00,47.0,33.0,30.16,NNW,329,0.0,21.0,57,0.00,,,0.00,,2013-02-04 02:21:00,
2013-02-03 20:31:00,46.0,32.0,30.16,NNW,329,0.0,21.0,59,0.00,,,0.00,,2013-02-04 02:31:00,
2013-02-03 20:41:00,46.0,32.0,30.16,NNW,329,0.0,21.0,59,0.00,,,0.00,,2013-02-04 02:41:00,
2013-02-03 20:52:00,45.0,32.0,30.16,NNW,329,0.0,21.0,61,0.00,,,0.00,,2013-02-04 02:52:00,
2013-02-03 21:02:00,44.0,32.0,30.16,NNW,329,0.0,21.0,62,0.00,,,0.00,,2013-02-04 03:02:00,
2013-02-03 21:11:00,44.0,33.0,30.15,NNW,329,0.0,21.0,64,0.00,,,0.00,,2013-02-04 03:11:00,
2013-02-03 21:21:00,44.0,33.0,30.15,NNW,329,0.0,21.0,64,0.00,,,0.00,,2013-02-04 03:21:00,
2013-02-03 21:32:00,43.0,32.0,30.15,NNW,329,0.0,21.0,66,0.00,,,0.00,,2013-02-04 03:32:00,
2013-02-03 21:41:00,43.0,32.0,30.15,NNW,329,0.0,21.0,66,0.00,,,0.00,,2013-02-04 03:41:00,
2013-02-03 21:52:00,43.0,33.0,30.15,NNW,329,0.0,21.0,68,0.00,,,0.00,,2013-02-04 03:52:00,
2013-02-03 22:01:00,42.0,33.0,30.14,NNW,329,0.0,21.0,69,0.00,,,0.00,,2013-02-04 04:01:00,
2013-02-03 22:11:00,42.0,33.0,30.14,NNW,329,0.0,21.0,69,0.00,,,0.00,,2013-02-04 04:11:00,
2013-02-03 22:21:00,41.0,33.0,30.14,NNW,329,0.0,21.0,72,0.00,,,0.00,,2013-02-04 04:21:00,
2013-02-03 22:31:00,41.0,32.0,30.14,NNW,329,0.0,21.0,71,0.00,,,0.00,,2013-02-04 04:31:00,
2013-02-03 22:41:00,41.0,32.0,30.14,NNW,329,0.0,21.0,71,0.00,,,0.00,,2013-02-04 04:41:00,
2013-02-03 22:52:00,41.0,33.0,30.14,NNW,329,0.0,21.0,74,0.00,,,0.00,,2013-02-04 04:52:00,
2013-02-03 23:03:00,40.0,33.0,30.14,NNW,329,0.0,21.0,75,0.00,,,0.00,,2013-02-04 05:03:00,
2013-02-03 23:11:00,40.0,33.0,30.14,NNW,329,0.0,21.0,75,0.00,,,0.00,,2013-02-04 05:11:00,
2013-02-03 23:22:00,39.0,31.0,30.13,NNW,329,0.0,21.0,74,0.00,,,0.00,,2013-02-04 05:22:00,
2013-02-03 23:33:00,39.0,32.0,30.12,NNW,329,0.0,21.0,76,0.00,,,0.00,,2013-02-04 05:33:00,
2013-02-03 23:42:00,39.0,32.0,30.12,NNW,329,0.0,21.0,76,0.00,,,0.00,,2013-02-04 05:42:00,
2013-02-03 23:52:00,40.0,34.0,30.12,NNW,329,0.0,21.0,78,0.00,,,0.00,,2013-02-04 05:52:00,